Regional Weather Roundup
Issued by NWS

Home | Current Version | Previous Version | Text Only | Print | Product List | Glossary On
Versions: 1 2 3 4 5 6 7 8 9 10 11 12 13 14 15 16 17 18 19 20 21 22 23 24 25 26 27 28 29 30 31 32 33 34 35 36 37 38 39 40 41 42 43 44 45 46 47 48 49 50
000
ASUS43 KMPX 262210
RWRMN
WEATHER ROUNDUP FOR MINNESOTA
NATIONAL WEATHER SERVICE TWIN CITIES/CHANHASSEN MN
400 PM CST WED NOV 26 2014


NOTE: "FAIR" INDICATES FEW OR NO CLOUDS BELOW 12,000 FEET WITH NO
SIGNIFICANT WEATHER AND/OR OBSTRUCTIONS TO VISIBILITY. N/A MEANS
CURRENT SKY AND/OR WEATHER CONDITIONS ARE NOT AVAILABLE.

MNZ060>063-068>070-262300-
   Twin Cities Metro

CITY           SKY/WX    TMP DP  RH WIND       PRES   REMARKS
TWIN CITIES    CLOUDY    24  17  74 N9        30.25R WCI  14
ST PAUL        CLOUDY    25  17  72 NW14      30.27R WCI  13
CRYSTAL        MOCLDY    25  15  66 N6        30.24R WCI  18
BLAINE         MOCLDY    27  19  74 MISG      30.24R
LAKEVILLE      CLOUDY    25  19  80 N12       30.23R WCI  14
EDEN PRAIRIE   CLOUDY    24  17  74 N9G18     30.23R WCI  14
SOUTH ST PAUL  CLOUDY    26  18  71 N7        30.25R WCI  18
LAKE ELMO      CLOUDY    27  19  74 N10       30.25R WCI  17
$$
MNZ001>005-007-008-013>017-022>024-027-028-262300-
   Northwest Minnesota

CITY           SKY/WX    TMP DP  RH WIND       PRES   REMARKS
BEMIDJI        CLEAR      4  -5  64 W10       30.34R WCI -11
HALLOCK        CLEAR     -2  -9  71 N10       30.50R WCI -19
ROSEAU         CLEAR      1  -9  60 NW7       30.43R WCI -11
WARROAD        CLEAR      1  -8  66 W7        30.42R WCI -11
THIEF RVR FALL CLEAR      1  -8  66 NW12      30.43R WCI -15
CROOKSTON      CLEAR      1  -6  71 N15       30.48R WCI -18
FOSSTON        CLEAR      1  -9  60 NW10      30.40R WCI -14
DETROIT LAKES  PTCLDY     5  -2  72 N14G20    30.38R WCI -12
MOORHEAD       CLEAR      3  -2  78 N14       30.46R WCI -15
PARK RAPIDS    CLEAR      9  -8  46 NW12      30.31R WCI  -6
MAHNOMEN       FAIR       2  -6  69 N12G17    30.39R WCI -15
$$
MNZ006-009>011-018-025>026-262300-
   North Central Minnesota

CITY           SKY/WX    TMP DP  RH WIND       PRES   REMARKS
BAUDETTE       CLEAR      0  -9  65 NW9       30.39R WCI -15
FLAG ISLAND    CLEAR     -2  -9  71 N9        30.41R WCI -18
INTL FALLS     CLEAR      4  -6  63 N10       30.34R WCI -11
WASKISH        CLEAR      3  -6  66 CALM      30.37R
BIG FORK       CLEAR      9  -6  52 NW5       30.31R WCI   0
LONGVILLE      CLEAR     10  -6  48 NW8       30.31R WCI  -1
GRAND RAPIDS   CLEAR     10  -6  48 N9        30.26R WCI  -2
CRANE LAKE     CLEAR      5  -4  66 NW6       30.33R WCI  -6
ORR            CLEAR      7  -8  51 NW8       30.28R WCI  -6
COOK           CLEAR      9  -2  61 NW8       30.28R WCI  -4
WALKER         FAIR       8 -10  45 N6        30.32R WCI  -3
$$
MNZ012-019>021-037-262300-
   Northeast Minnesota

CITY           SKY/WX    TMP DP  RH WIND       PRES   REMARKS
DULUTH         MOCLDY    16   6  65 N9        30.22R WCI   4
ELY            PTCLDY     9   3  78 N6        30.24R WCI  -1
HIBBING        FAIR      12  -1  56 N13       30.26R WCI  -3
EVELETH        PTCLDY    12   3  67 N7        30.26R WCI   2
DULUTH HARBOR  CLOUDY    21  10  63 N13       30.28R WCI   9
TWO HARBORS    CLOUDY    19  10  68 N6        30.22R WCI  11
SILVER BAY     PTCLDY    18   7  62 NW3       30.22R
GRAND MARAIS     N/A     17   5  59 N9G24     30.24R WCI   6
G MARAIS ARPRT MOCLDY     9   0  66 NW9       30.16R WCI  -5
$$
MNZ029>031-032-039>041-046>048-054>057-064-262300-
   West Central Minnesota

CITY           SKY/WX    TMP DP  RH WIND       PRES   REMARKS
FERGUS FALLS   MOCLDY     7  -2  66 N16       30.42R WCI -11
WHEATON        MOCLDY     5  -2  72 NW16G23   30.44R WCI -14
MORRIS         CLOUDY     9   3  78 NW22G28   30.35R WCI -11
ALEXANDRIA     CLOUDY    13   5  70 NW13      30.31R WCI  -2
ELBOW LAKE     CLOUDY     9  -1  65 NW15      30.36R WCI  -8
WADENA         PTCLDY    12  -2  52 NW13      30.31R WCI  -3
GLENWOOD       CLOUDY    16  10  79 NW12      30.30R WCI   3
APPLETON       CLOUDY    10   5  79 N20       30.38R WCI  -8
BENSON         CLOUDY    12   7  79 N18G24    30.34R WCI  -5
ORTONVILLE     LGT SNOW   9   0  66 NW17G23   30.39R WCI -10
MADISON        PTCLDY    14   7  73 N18G24    30.38R WCI  -3
WILLMAR        FAIR      18  10  73 NW20G25   30.31R WCI   1
$$
MNZ033>034-036-042>043-049>051-058-059-262300-
   Central Minnesota

CITY           SKY/WX    TMP DP  RH WIND       PRES   REMARKS
ST CLOUD       CLOUDY    22  11  62 N9        30.27R WCI  12
SAUK CENTRE    CLOUDY    18   7  60 N10       30.29R WCI   6
PAYNESVILLE    CLOUDY    18  11  74 W10       30.28R WCI   6
AITKIN         CLEAR     18   3  53 NW7       30.26R WCI   8
PINE RIVER     MOCLDY    10  -2  56 N9        30.33R WCI  -2
BRAINERD       MOCLDY    14   1  56 N14       30.29R WCI  -1
STAPLES        CLOUDY    12   0  57 N13       30.30R WCI  -3
LONG PRAIRIE   CLOUDY    18   7  62 NW13      30.29R WCI   4
LITTLE FALLS   PTCLDY    19   7  58 N7        30.29R WCI  10
LITCHFIELD     CLOUDY    21  18  86 N12       30.28R WCI   9
BUFFALO        PTCLDY    23  16  75 NW6       30.28R WCI  15
MAPLE LAKE     MOCLDY    24  17  75 NW9       30.27R WCI  14
$$
MNZ037-044-045-052-053-262300-
   East Central Minnesota

CITY           SKY/WX    TMP DP  RH WIND       PRES   REMARKS
PRINCETON      PTCLDY    23  12  63 NW9       30.26R WCI  13
MORA           MOCLDY    21  12  68 NW9       30.27R WCI  11
CAMBRIDGE      PTCLDY    27  14  59 N7        30.23S WCI  19
RUSH CITY      PTCLDY    23  14  67 N7        30.25R WCI  15
MOOSE LAKE     MOCLDY    19   9  63 N8        30.24R WCI   9
HINCKLEY       CLOUDY    23  12  63 N10       30.25R WCI  12
CLOQUET        MOCLDY    16   7  67 NW7       30.23R WCI   6
MCGREGOR       PTCLDY    18   7  62 NW8       30.27R WCI   7
$$
MNZ071>073-080-081-089-090-097-098-262300-
   Southwest Minnesota

CITY           SKY/WX    TMP DP  RH WIND       PRES   REMARKS
MONTEVIDEO     CLOUDY    10   7  85 N14       30.36R WCI  -5
GRANITE FALLS  CLOUDY    12   7  81 NW14G22   30.36R WCI  -3
CANBY          CLOUDY    11   6  78 NW15      30.38R WCI  -5
MARSHALL       CLOUDY    10   3  72 NW21G26   30.34R WCI  -9
REDWOOD FALLS  CLOUDY    15  10  80 NW15G23   30.31R WCI   0
OLIVIA         CLOUDY    18  14  86 NW15      30.30R WCI   3
PIPESTONE      PTCLDY    12   7  79 N9G17     30.30R WCI   0
WINDOM         CLOUDY    16  12  86 NW22      30.26R WCI  -2
WORTHINGTON    CLOUDY    16  12  86 N18G26    30.27R WCI  -1
JACKSON        CLOUDY    19  14  79 NW24G32   30.24R WCI   2
TRACY          LGT SNOW  13   9  85 NW18G24   30.32R WCI  -4
SLAYTON        LGT SNOW  13  10  89 NW14G21   30.29R WCI  -3
$$
MNZ065>067-074>077-082>085-091>093-262300-
   South Central Minnesota

CITY           SKY/WX    TMP DP  RH WIND       PRES   REMARKS
MANKATO        CLOUDY    25  18  74 N14       30.24R WCI  13
NEW ULM        PTCLDY    23  18  80 N15G23    30.26R WCI  10
ST JAMES       CLOUDY    21  18  86 NW18      30.27R WCI   6
FAIRMONT       CLOUDY    23  18  80 N21       30.22R WCI   8
GLENCOE        PTCLDY    24  19  81 NW6       30.26R WCI  16
FARIBAULT      CLOUDY    25  21  86 NW3       30.22R
OWATONNA       MIX PCPN  25  21  86 N10       30.20R WCI  15
WASECA         CLOUDY    25  19  80 N9        30.23R HAZE    WCI  15
ALBERT LEA     LGT SNOW  25  23  93 N8        30.19R WCI  16
$$
MNZ078>079-086>088-094>096-262300-
   Southeast Minnesota

CITY           SKY/WX    TMP DP  RH WIND       PRES   REMARKS
ROCHESTER      LGT SNOW  24  20  84 N7        30.18R FOG     WCI  16
RED WING       LGT SNOW  27  23  86 NW3       30.22R
STANTON        MIX PCPN  27  23  86 N6        30.21R WCI  20
DODGE CENTER   LGT SNOW  25  23  93 N6        30.18R WCI  18
WINONA         LGT SNOW  28  25  86 N3        30.22R
AUSTIN         LGT SNOW  25  21  86 N7        30.18R WCI  17
PRESTON        LGT SNOW  23  21  91 N8        30.17R WCI  14
$$
ABBREVIATIONS USED IN REMARKS
   TC - TEMPERATURES IN CELSIUS
  WCI - WIND CHILL INDEX
   HX - HEAT INDEX
  VSB - VISIBILITY
$$



USA.gov is the U.S. government's official web portal to all federal, state and local government web resources and services.